Torna al catalogo

STARLINK-30989

AttivoComunicazioniVLEO
NORAD 58510·PAYLOAD·🇺🇸 United States

Lanciato Dec 7, 2023 da Cape Canaveral Space Force Station

Loading…

Prossimi Passaggi (prossime 24 ore)

TLE

AggiornatoSource: CelesTrak SupGP

Epoca: Sep 15, 2026, 03:23 UTC

1 58510C 23191C   26258.14145833  .00033294  00000+0  12057-2 0  2582
2 58510  42.9997 113.7780 0001479 274.3202  41.6174 15.27566190    15

Traccia STARLINK-30989 in tempo reale con AllMySat

Download on the App Store